Hourly Data Report for October 02, 2016

All times are specified in Local Standard Time (LST). Add 1 hour to adjust for Daylight Saving Time where and when it is observed.

MONCTON INTL A
NEW BRUNSWICK

46°06'44.000" N
64°40'43.000" W
70.70 m
8103201
71705
YQM

Download Data

Hourly Data (October 2016)
Hourly Data Report for October 2, 2016
Temp Definition
°C
Dew Point Temp Definition
°C
Rel Hum Definition
%
Wind Dir Definition
10's deg

Wind Spd Definition
km/h
Visibility Definition
km
Stn Press Definition
kPa
Hmdx Definition


Wind Chill Definition


Weather Definition


TIME
00:00 Legend Double Dagger 9.4 8.8 96 21 8 24.1 101.56     LegendNANA
01:00 Legend Double Dagger 9.7 9.1 96 21 8 24.1 101.55     LegendNANA
02:00 Legend Double Dagger 9.0 8.4 96 20 9 24.1 101.50     Mostly Cloudy
03:00 Legend Double Dagger 8.9 8.5 97 20 10 24.1 101.46     LegendNANA
04:00 Legend Double Dagger 9.3 8.4 94 25 5 24.1 101.45     LegendNANA
05:00 Legend Double Dagger 9.2 8.5 95 21 7 24.1 101.40     Cloudy
06:00 Legend Double Dagger 8.8 8.2 96 21 10 24.1 101.39     LegendNANA
07:00 Legend Double Dagger 9.0 8.3 95 22 7 24.1 101.36     LegendNANA
08:00 Legend Double Dagger 10.0 8.6 91 26 5 24.1 101.33     Cloudy
09:00 Legend Double Dagger 10.2 8.8 91 27 8 24.1 101.29     LegendNANA
10:00 Legend Double Dagger 10.9 8.8 87 23 10 24.1 101.29     LegendNANA
11:00 Legend Double Dagger 11.5 9.3 86 23 11 24.1 101.25     Mostly Cloudy
12:00 Legend Double Dagger 12.5 9.5 82 21 8 24.1 101.15     LegendNANA
13:00 Legend Double Dagger 14.6 8.4 66 22 19 24.1 101.14     LegendNANA
14:00 Legend Double Dagger 16.1 8.7 61 23 5 24.1 101.05     Mainly Clear
15:00 Legend Double Dagger 16.1 8.2 59 20 5 24.1 100.93     LegendNANA
16:00 Legend Double Dagger 16.4 9.2 62 18 12 24.1 100.83     LegendNANA
17:00 Legend Double Dagger 15.5 8.1 61 16 11 24.1 100.74     Mainly Clear
18:00 Legend Double Dagger 13.2 9.5 78 16 9 24.1 100.69     LegendNANA
19:00 Legend Double Dagger 11.7 10.5 92 17 9 24.1 100.64     LegendNANA
20:00 Legend Double Dagger 12.2 10.8 91 21 10 24.1 100.63     Cloudy
21:00 Legend Double Dagger 12.9 10.8 87 20 10 24.1 100.60     LegendNANA
22:00 Legend Double Dagger 12.7 11.1 90 23 14 19.3 100.56     Drizzle
23:00 Legend Double Dagger 12.5 11.3 92 20 14 24.1 100.48     Cloudy

Notes on Data Quality.

Legend

  • E = Estimated
  • M = Missing
  • NA = Not Available
  • ‡ = Partner data that is not subject to review by the National Climate Archives
Date modified: